Flag for U.S.A. Weather past 2 weeks in Bryan – College Station, Texas, U.S.A.

Now
82 °F

Clear.


Feels Like: 87 °F
Forecast: 78 / 97 °F
Wind: 9 mph from South

Location: Easterwood Field

Current Time: Aug 5, 2015 at 1:28:37 AM

Latest Report: Aug 5, 2015 at 12:53 AM


Visibility: 10 mi

Pressure: 29.97 "Hg

Humidity: 74%

Dew point: 73 °F

Location of Bryan – College StationLocation

Historic Weather in Bryan – College Station — Graph

°F

Bryan – College Station temperature yesterday

Maximum temperature yesterday: 97 °F (at 2:53 PM)
Minimum temperature yesterday: 75 °F (at 5:53 AM)
Average temperature yesterday: 86 °F

Past Weeks' High & Low Weather Summary

 TemperatureHumidityPressure
High101 °F (Jul 30, 1:53 PM)97% (Jul 24, 5:53 AM)30.07 "Hg (Jul 24, 5:53 AM)
Low73 °F (Aug 2, 6:53 AM)23% (Aug 2, 3:53 PM)29.81 "Hg (Jul 21, 7:53 PM)
Average86 °F62%29.94 "Hg
* Reported Jul 20 11:53 PM — Aug 4 11:53 PM, Bryan – College Station, Weather by CustomWeather, © 2015

Note: Actual official high and low records may vary slightly from our data, if they occured in-between our weather recording intervals... More about our weather records

Advertising

Bryan – College Station weather history for previous 24 hours

 ConditionsComfort  
Time TempWeatherWind HumidityBarometerVisibility
11:53 PM
Tue, Aug 4
84 °FClear.13 mph65%29.96 "Hg10 mi
10:53 PM85 °FClear.10 mph63%29.94 "Hg10 mi
9:53 PM86 °FClear.9 mph63%29.92 "Hg10 mi
8:53 PM87 °FSunny.6 mph59%29.90 "Hg10 mi
7:53 PM91 °FSunny.8 mph52%29.89 "Hg10 mi
6:53 PM93 °FSunny.9 mph47%29.88 "Hg10 mi
5:53 PM95 °FSunny.16 mph46%29.89 "Hg10 mi
4:53 PM97 °FSunny.12 mph40%29.90 "Hg10 mi
3:53 PM94 °FBroken clouds.12 mph46%29.90 "Hg10 mi
2:53 PM97 °FScattered clouds.12 mph43%29.92 "Hg10 mi
1:53 PM95 °FSunny.9 mph44%29.93 "Hg10 mi
12:53 PM94 °FPassing clouds.13 mph44%29.95 "Hg10 mi
11:53 AM90 °FPassing clouds.7 mph56%29.96 "Hg10 mi
10:53 AM86 °FScattered clouds.8 mph67%29.98 "Hg10 mi
9:53 AM85 °FScattered clouds.10 mph72%29.97 "Hg10 mi
8:53 AM81 °FPartly sunny.6 mph82%29.97 "Hg10 mi
7:53 AM78 °FSunny.7 mph87%29.96 "Hg8 mi
6:53 AM75 °FClear.3 mph90%29.94 "Hg9 mi
5:53 AM75 °FClear.5 mph90%29.93 "Hg10 mi
4:53 AM76 °FClear.5 mph85%29.91 "Hg10 mi
3:53 AM77 °FClear.No wind82%29.91 "Hg10 mi
2:53 AM78 °FClear.No wind79%29.91 "Hg10 mi
1:53 AM80 °FClear.5 mph74%29.90 "Hg10 mi
Weather by CustomWeather, © 2015

See weather overviewHow to use our weather pages